Location: Dealu Mare
(46.0500°N, 22.8167°E)
Time: 21:56:01
(UTC+00:00)

Timation 2 Rocket - Pass Details

Date: 15 January 2026
Orbit: 906 x 1072 km, 70.0° (Epoch: 10 February)

Event Time Altitude Azimuth Distance (km) Brightness Sun altitude
Rises 05:01:03 0° 223° (SW) 3,788 6.8 -11.2°
Reaches altitude 10° 05:03:46 10° 228° (SW) 2,818 6.1 -10.8°
Maximum altitude 05:10:11 52° 304° (NW) 1,223 4.2 -9.7°
Drops below altitude 10° 05:16:22 10° 21° (NNE) 2,718 6.3 -8.7°
Sets 05:18:57 0° 26° (NNE) 3,644 7.1 -8.3°
